Date String (YYYY-MM-DD hh:mm:ss) UTC,Instrument flags,absolute air pressure of the measurement (hPa),sample flow rate (lpm),inlet stack bypass flow (lpm),air temperature of the measurement (°C),ambient temperature measured by the external sensor (°C),aerosol sample conditioner tube jacket temperature (°C),OPC LED temperature (°C),internal box temperature (°C),relative humidity of the measurement (%),span deviation,mass concentration of particles derived from Lorenz-Mie calculation of OPC scattering (μg/m³),mass concentration of particles derived from Lorenz-Mie calculation of OPC scattering (μg/m³),mass concentration of particles derived from Lorenz-Mie calculation of OPC scattering (μg/m³)
DateTimeUTC,F1_M11,P_M11,Q1_M11,Q2_M11,T1_M11,T2_M11,T3_M11,T4_M11,T5_M11,U1_M11,ZSPAN_M11,X2_M11,X0_M11,X1_M11
2024-06-18 12:00:00,SystemResetWarning,0822.6,5.00,000.00,029.2,028.3,000.0,038.1,031.0,014.1,0000.0,0009.30,0068.56,0002.69
2024-06-18 12:01:00,SystemResetWarning,0823.0,4.99,000.00,029.2,028.3,000.0,038.0,031.0,014.0,0000.0,0009.16,0068.65,0002.67
2024-06-18 12:02:00,SystemResetWarning,0823.0,5.00,000.00,029.2,028.2,000.0,038.0,030.9,014.0,0000.0,0009.09,0067.08,0002.65
2024-06-18 12:03:00,SystemResetWarning,0822.6,5.00,000.00,029.2,028.2,000.0,038.0,030.9,014.2,0000.0,0009.03,0065.80,0002.65
2024-06-18 12:04:00,SystemResetWarning,0822.5,4.99,000.00,029.2,028.2,000.0,038.0,030.9,014.1,0000.0,0009.01,0068.98,0002.64
2024-06-18 12:05:00,SystemResetWarning,0822.5,5.00,000.00,029.1,028.1,000.0,038.0,030.9,014.1,0000.0,0008.91,0069.15,0002.64
2024-06-18 12:06:00,SystemResetWarning,0822.5,5.00,000.00,029.1,028.2,000.0,037.9,030.9,014.0,0000.0,0008.78,0067.86,0002.61
2024-06-18 12:07:00,SystemResetWarning,0822.7,5.00,000.00,029.1,028.2,000.0,037.9,030.8,014.0,0000.0,0008.74,0070.07,0002.63
2024-06-18 12:08:00,SystemResetWarning,0823.0,4.99,000.00,029.1,028.1,000.0,037.9,030.8,014.1,0000.0,0008.54,0070.78,0002.60
2024-06-18 12:09:00,SystemResetWarning,0822.8,5.00,000.00,029.1,028.1,000.0,037.9,030.8,014.0,0000.0,0008.46,0072.08,0002.58
2024-06-18 12:10:00,SystemResetWarning,0822.9,5.01,000.00,029.0,028.1,000.0,037.9,030.8,013.9,0000.0,0008.48,0075.86,0002.54
2024-06-18 12:11:00,SystemResetWarning,0822.9,5.01,000.00,029.0,028.1,000.0,037.9,030.8,014.1,0000.0,0008.49,0077.32,0002.52
2024-06-18 12:12:00,SystemResetWarning,0822.8,5.00,000.00,029.0,028.0,000.0,037.8,030.8,014.1,0000.0,0008.43,0076.58,0002.52
2024-06-18 12:13:00,SystemResetWarning,0823.1,5.00,000.00,029.0,028.0,000.0,037.8,030.7,014.1,0000.0,0008.40,0075.70,0002.53
2024-06-18 12:14:00,SystemResetWarning,0822.9,4.99,000.00,029.0,028.0,000.0,037.8,030.7,014.0,0000.0,0008.28,0077.53,0002.54
2024-06-18 12:15:00,SystemResetWarning,0822.6,5.00,000.00,028.9,027.9,000.0,037.8,030.7,013.8,0000.0,0008.14,0075.25,0002.54
2024-06-18 12:16:00,SystemResetWarning,0822.6,5.00,000.00,028.9,027.9,000.0,037.8,030.7,014.0,0000.0,0008.10,0073.61,0002.52
2024-06-18 12:17:00,SystemResetWarning,0822.7,5.00,000.00,028.9,027.9,000.0,037.7,030.7,013.8,0000.0,0008.21,0074.11,0002.49
2024-06-18 12:18:00,SystemResetWarning,0822.7,5.00,000.00,028.9,027.9,000.0,037.7,030.6,013.8,0000.0,0008.14,0073.24,0002.45
2024-06-18 12:19:00,SystemResetWarning,0822.6,5.00,000.00,028.9,027.9,000.0,037.7,030.6,013.7,0000.0,0008.14,0071.41,0002.43
2024-06-18 12:20:00,SystemResetWarning,0822.6,5.00,000.00,028.9,027.9,000.0,037.7,030.6,013.7,0000.0,0008.15,0071.28,0002.42
2024-06-18 12:21:00,SystemResetWarning,0822.6,5.01,000.00,028.8,027.8,000.0,037.7,030.6,013.8,0000.0,0007.99,0068.89,0002.41
2024-06-18 12:22:00,SystemResetWarning,0822.6,5.00,000.00,028.8,027.8,000.0,037.6,030.6,013.9,0000.0,0007.77,0066.81,0002.41
2024-06-18 12:23:00,SystemResetWarning,0822.6,5.00,000.00,028.8,027.8,000.0,037.6,030.6,013.9,0000.0,0007.62,0063.65,0002.39
2024-06-18 12:24:00,SystemResetWarning,0822.9,5.00,000.00,028.8,027.8,000.0,037.6,030.6,013.9,0000.0,0007.46,0059.63,0002.38
2024-06-18 12:25:00,SystemResetWarning,0822.7,5.01,000.00,028.8,027.8,000.0,037.6,030.5,014.0,0000.0,0007.38,0056.09,0002.34
2024-06-18 12:26:00,SystemResetWarning,0822.8,5.01,000.00,028.8,027.8,000.0,037.6,030.5,014.0,0000.0,0007.30,0053.74,0002.32
2024-06-18 12:27:00,SystemResetWarning,0822.8,4.99,000.00,028.8,027.8,000.0,037.6,030.5,013.9,0000.0,0007.19,0054.40,0002.31
2024-06-18 12:28:00,SystemResetWarning,0823.0,4.99,000.00,028.7,027.8,000.0,037.5,030.5,014.0,0000.0,0006.96,0054.01,0002.31
2024-06-18 12:29:00,SystemResetWarning,0823.0,5.00,000.00,028.7,027.8,000.0,037.5,030.5,014.2,0000.0,0006.97,0054.91,0002.33
2024-06-18 12:30:00,SystemResetWarning,0822.9,5.00,000.00,028.7,027.8,000.0,037.5,030.5,014.4,0000.0,0006.89,0054.15,0002.34
2024-06-18 12:31:00,SystemResetWarning,0822.9,5.00,000.00,028.7,027.8,000.0,037.5,030.5,014.5,0000.0,0006.87,0052.68,0002.35
2024-06-18 12:32:00,SystemResetWarning,0822.8,5.00,000.00,028.7,027.8,000.0,037.5,030.5,014.5,0000.0,0006.81,0054.17,0002.35
2024-06-18 12:33:00,SystemResetWarning,0822.9,5.00,000.00,028.7,027.7,000.0,037.5,030.5,014.5,0000.0,0006.78,0056.00,0002.35
2024-06-18 12:34:00,SystemResetWarning,0822.9,4.99,000.00,028.7,027.7,000.0,037.5,030.5,014.8,0000.0,0006.70,0056.48,0002.36
2024-06-18 12:35:00,SystemResetWarning,0822.8,4.99,000.00,028.6,027.7,000.0,037.4,030.4,014.9,0000.0,0006.63,0054.25,0002.35
2024-06-18 12:36:00,SystemResetWarning,0822.8,4.99,000.00,028.6,027.7,000.0,037.4,030.4,014.9,0000.0,0006.53,0052.59,0002.36
2024-06-18 12:37:00,SystemResetWarning,0823.0,5.00,000.00,028.6,027.7,000.0,037.4,030.4,015.0,0000.0,0006.47,0051.66,0002.35
2024-06-18 12:38:00,SystemResetWarning,0822.9,5.00,000.00,028.6,027.6,000.0,037.4,030.4,015.1,0000.0,0006.50,0049.59,0002.34
2024-06-18 12:39:00,SystemResetWarning,0822.9,5.00,000.00,028.6,027.6,000.0,037.4,030.4,015.4,0000.0,0006.63,0047.60,0002.33
2024-06-18 12:40:00,SystemResetWarning,0823.0,5.00,000.00,028.6,027.6,000.0,037.4,030.3,015.2,0000.0,0006.60,0046.98,0002.32
2024-06-18 12:41:00,SystemResetWarning,0823.0,5.00,000.00,028.5,027.6,000.0,037.4,030.3,015.3,0000.0,0006.50,0047.14,0002.30
2024-06-18 12:42:00,SystemResetWarning,0823.0,5.01,000.00,028.5,027.6,000.0,037.3,030.3,015.4,0000.0,0006.51,0047.13,0002.32
2024-06-18 12:43:00,SystemResetWarning,0823.0,5.00,000.00,028.5,027.6,000.0,037.3,030.3,015.4,0000.0,0006.59,0043.46,0002.31
2024-06-18 12:44:00,SystemResetWarning,0823.0,4.99,000.00,028.5,027.5,000.0,037.3,030.3,015.3,0000.0,0006.63,0041.30,0002.30
2024-06-18 12:45:00,SystemResetWarning,0823.0,5.00,000.00,028.5,027.5,000.0,037.3,030.2,015.2,0000.0,0006.63,0040.15,0002.27
2024-06-18 12:46:00,SystemResetWarning,0823.0,4.99,000.00,028.5,027.5,000.0,037.3,030.2,015.4,0000.0,0006.66,0042.92,0002.26
2024-06-18 12:47:00,SystemResetWarning,0823.0,5.00,000.00,028.4,027.5,000.0,037.2,030.2,015.2,0000.0,0006.67,0043.32,0002.25
2024-06-18 12:48:00,SystemResetWarning,0823.1,5.00,000.00,028.4,027.4,000.0,037.2,030.1,015.3,0000.0,0006.64,0042.42,0002.27
2024-06-18 12:49:00,SystemResetWarning,0823.1,5.01,000.00,028.4,027.4,000.0,037.2,030.1,015.2,0000.0,0006.51,0042.66,0002.28
2024-06-18 12:50:00,SystemResetWarning,0823.1,4.99,000.00,028.4,027.4,000.0,037.2,030.1,015.1,0000.0,0006.36,0041.94,0002.29
2024-06-18 12:51:00,SystemResetWarning,0823.1,5.00,000.00,028.4,027.3,000.0,037.2,030.1,014.8,0000.0,0006.20,0040.66,0002.28
2024-06-18 12:52:00,SystemResetWarning,0823.1,5.01,000.00,028.3,027.3,000.0,037.1,030.1,015.0,0000.0,0006.17,0040.69,0002.28
2024-06-18 12:53:00,SystemResetWarning,0823.1,5.00,000.00,028.3,027.3,000.0,037.1,030.1,014.3,0000.0,0006.08,0039.48,0002.27
2024-06-18 12:54:00,SystemResetWarning,0823.2,5.01,000.00,028.3,027.3,000.0,037.1,030.1,014.3,0000.0,0005.99,0041.12,0002.27
2024-06-18 12:55:00,SystemResetWarning,0823.2,5.00,000.00,028.3,027.3,000.0,037.1,030.1,014.2,0000.0,0005.83,0041.15,0002.27
2024-06-18 12:56:00,SystemResetWarning,0823.2,5.00,000.00,028.3,027.3,000.0,037.1,030.0,014.3,0000.0,0005.82,0040.17,0002.29
2024-06-18 12:57:00,SystemResetWarning,0823.3,4.99,000.00,028.3,027.3,000.0,037.1,030.0,014.4,0000.0,0005.72,0036.98,0002.29
2024-06-18 12:58:00,SystemResetWarning,0823.2,4.99,000.00,028.2,027.3,000.0,037.0,030.1,014.7,0000.0,0005.59,0034.74,0002.31
2024-06-18 12:59:00,SystemResetWarning,0823.2,5.00,000.00,028.2,027.3,000.0,037.0,030.0,014.1,0000.0,0005.55,0035.63,0002.29
